Regional Weather Roundup
Issued by NWS Albany, NY

Home | Current Version | Previous Version | Text Only | Print | Product List | Glossary On
Versions: 1 2 3 4 5 6 7 8 9 10 11 12 13 14 15 16 17 18 19 20 21 22 23 24 25 26 27 28 29 30 31 32 33 34 35 36 37 38 39 40 41 42 43 44 45 46 47 48 49 50
000
ASUS41 KALY 151010
RWRALY

NEW YORK STATE HOURLY WEATHER ROUNDUP
NATIONAL WEATHER SERVICE ALBANY NY
600 AM EDT MON SEP 15 2014

NOTE: "FAIR" INDICATES FEW OR NO CLOUDS BELOW 12,000 FEET WITH NO
SIGNIFICANT WEATHER AND/OR NO OBSTRUCTIONS TO VISIBILITY.

NYZ032-033-038>043-046>054-057>066-NYZ062>081-151100-
EAST


CITY           SKY/WX    TMP DP  RH WIND       PRES   REMARKS
ALBANY         PTCLDY    42  40  92 CALM      30.26R
GLENS FALLS    PTCLDY    43  41  93 CALM      30.25R
POUGHKEEPSIE   CLOUDY    46  44  93 CALM      30.25R
NEWBURGH       MOCLDY    48  48 100 CALM      30.25S
MONTGOMERY     MOCLDY    45  43  93 CALM      30.25R
WHITE PLAINS   PTCLDY    51  42  71 N5        30.22R
ISLIP          MOCLDY    54  50  86 N5        30.20R
NEW YORK CITY  PTCLDY    55  44  66 NE9       30.23R
CENTRAL PARK   CLEAR     56  42  59 VRB3      30.26R
$$

NYZ005>009-017-018-044>046-055-056-151100-
CENTRAL


CITY           SKY/WX    TMP DP  RH WIND       PRES   REMARKS
FULTON         PTCLDY    42  40  92 CALM      30.23R
SYRACUSE       PTCLDY    47  43  86 E7        30.23S
ROME           CLEAR     39  38  96 SE3       30.26S
ELMIRA         CLOUDY    50  48  93 CALM      30.23S
BINGHAMTON     CLOUDY    48  43  82 CALM      30.24R
MONTICELLO     CLOUDY    43  43 100 W3        30.25R
$$

NYZ026>034-041>043-151100-
NORTH


CITY           SKY/WX    TMP DP  RH WIND       PRES   REMARKS
WATERTOWN      CLOUDY    47  38  71 CALM      30.22R
FORT DRUM      NOT AVBL
MASSENA        CLOUDY    43  42  97 CALM      30.23R
SARANAC LAKE   FOG       37  37 100 SW5       30.20S VSB 1/4 WCI  33
PLATTSBURGH    CLEAR     35  34  96 CALM      30.23S
$$

NYZ001>004-010>016-019>021-151100-
WEST


CITY           SKY/WX    TMP DP  RH WIND       PRES   REMARKS
NIAGARA FALLS  CLEAR     50  46  86 CALM      30.20S
BUFFALO        MOCLDY    52  46  80 S6        30.21S
DUNKIRK        CLOUDY    53  49  86 S3        30.22S
JAMESTOWN      CLOUDY    48  45  87 S3        30.23R
WELLSVILLE     CLOUDY    48  43  82 CALM      30.24S
ROCHESTER      CLOUDY    51  47  86 SW5       30.21F
PENN YAN       CLOUDY    52  46  80 S5        30.23S
$$

             KEY
       WCI = WIND CHILL INDEX
       VSB = VISIBILITY
       HX  = HEAT INDEX
$$


USA.gov is the U.S. government's official web portal to all federal, state and local government web resources and services.